Location: Koszewko
(53.2876°N, 14.9061°E)
Time: 01:50:31
(UTC+00:00)

Cosmos 2369 Rocket - Pass Details

Date: 03 March 2021
Orbit: 829 x 852 km, 71.0° (Epoch: 11 April)

Event Time Altitude Azimuth Distance (km) Brightness Sun altitude
Rises 19:43:55 0° 327° (NNW) 3,384 6.3 -27.1°
Reaches altitude 10° 19:46:46 10° 340° (NNW) 2,449 5.2 -27.5°
Enters shadow 19:51:08 26° 31° (NNE) 1,583 3.6 -28.1°
